| time (UTC) | temp F | wind direction | speed MPH | gust MPH | rain 1hr in | rain 24hr in | rain mn in | humidity % | barometer mb |
| 20260906111721 | 86 | 39 | 8.0 | 13.0 | 0.00 | 0.00 | 0.00 | 53 | 1021.4 |
| 20260906111003 | 85 | 64 | 8.0 | 10.0 | 0.00 | 0.00 | 0.00 | 52 | 1021.4 |
| 20260906110503 | 86 | 55 | 9.0 | 12.0 | 0.00 | 0.00 | 0.00 | 52 | 1021.4 |
| 20260906110004 | 86 | 56 | 10.0 | 15.0 | 0.00 | 0.00 | 0.00 | 52 | 1021.3 |
| 20260906105713 | 86 | 62 | 11.0 | 15.0 | 0.00 | 0.00 | 0.00 | 53 | 1021.3 |
| 20260906105003 | 85 | 42 | 12.0 | 13.0 | 0.00 | 0.00 | 0.00 | 56 | 1021.5 |
| 20260906104714 | 85 | 31 | 12.0 | 13.0 | 0.00 | 0.00 | 0.00 | 57 | 1021.8 |
| 20260906104217 | 85 | 25 | 9.0 | 13.0 | 0.00 | 0.00 | 0.00 | 59 | 1021.6 |
| 20260906103504 | 85 | 46 | 10.0 | 13.0 | 0.00 | 0.00 | 0.00 | 59 | 1021.5 |
| 20260906103005 | 85 | 94 | 11.0 | 15.0 | 0.00 | 0.00 | 0.00 | 60 | 1021.7 |
| 20260906102504 | 85 | 100 | 9.0 | 15.0 | 0.00 | 0.00 | 0.00 | 59 | 1021.6 |
| 20260906102214 | 85 | 95 | 9.0 | 11.0 | 0.00 | 0.00 | 0.00 | 58 | 1021.7 |
| 20260906101716 | 85 | 71 | 9.0 | 11.0 | 0.00 | 0.00 | 0.00 | 60 | 1021.8 |
| 20260906101004 | 85 | 45 | 7.0 | 9.0 | 0.00 | 0.00 | 0.00 | 60 | 1021.7 |
| 20260906100504 | 85 | 58 | 6.0 | 9.0 | 0.00 | 0.00 | 0.00 | 59 | 1021.8 |
| 20260906100215 | 85 | 54 | 6.0 | 9.0 | 0.00 | 0.00 | 0.00 | 61 | 1021.9 |
| 20260906095504 | 85 | 35 | 7.0 | 11.0 | 0.00 | 0.00 | 0.00 | 60 | 1022.0 |
| 20260906095003 | 85 | 74 | 7.0 | 11.0 | 0.00 | 0.00 | 0.00 | 60 | 1022.1 |
| 20260906094504 | 85 | 80 | 7.0 | 9.0 | 0.00 | 0.00 | 0.00 | 61 | 1021.8 |
| 20260906094003 | 85 | 37 | 6.0 | 8.0 | 0.00 | 0.00 | 0.00 | 61 | 1021.9 |
| 20260906093504 | 85 | 42 | 4.0 | 6.0 | 0.00 | 0.00 | 0.00 | 61 | 1022.0 |
| 20260906093003 | 84 | 53 | 5.0 | 7.0 | 0.00 | 0.00 | 0.00 | 61 | 1022.0 |
| 20260906092503 | 84 | 56 | 7.0 | 8.0 | 0.00 | 0.00 | 0.00 | 63 | 1021.9 |
| 20260906092003 | 84 | 78 | 8.0 | 8.0 | 0.00 | 0.00 | 0.00 | 63 | 1022.3 |
| 20260906091504 | 84 | 72 | 8.0 | 9.0 | 0.00 | 0.00 | 0.00 | 63 | 1022.2 |
| 20260906091003 | 84 | 49 | 8.0 | 9.0 | 0.00 | 0.00 | 0.00 | 63 | 1022.0 |
| 20260906090504 | 84 | 59 | 8.0 | 9.0 | 0.00 | 0.00 | 0.00 | 63 | 1022.1 |
| 20260906090004 | 84 | 68 | 8.0 | 11.0 | 0.00 | 0.00 | 0.00 | 63 | 1022.0 |
| 20260906085503 | 84 | 82 | 8.0 | 11.0 | 0.00 | 0.00 | 0.00 | 65 | 1022.0 |
| 20260906085217 | 84 | 93 | 7.0 | 11.0 | 0.00 | 0.00 | 0.00 | 64 | 1022.3 |
| 20260906084504 | 84 | 50 | 7.0 | 8.0 | 0.00 | 0.00 | 0.00 | 64 | 1021.9 |
| 20260906084004 | 84 | 69 | 7.0 | 8.0 | 0.00 | 0.00 | 0.00 | 64 | 1022.1 |
| 20260906083504 | 84 | 122 | 7.0 | 8.0 | 0.00 | 0.00 | 0.00 | 64 | 1022.0 |
| 20260906083003 | 84 | 153 | 7.0 | 8.0 | 0.00 | 0.00 | 0.00 | 64 | 1022.2 |
| 20260906082504 | 83 | 124 | 6.0 | 8.0 | 0.00 | 0.00 | 0.00 | 65 | 1021.9 |
| 20260906082003 | 83 | 83 | 6.0 | 8.0 | 0.00 | 0.00 | 0.00 | 65 | 1022.1 |
| 20260906081505 | 83 | 55 | 6.0 | 10.0 | 0.00 | 0.00 | 0.00 | 64 | 1022.1 |
| 20260906081003 | 83 | 43 | 5.0 | 10.0 | 0.00 | 0.00 | 0.00 | 65 | 1021.9 |
| 20260906080503 | 84 | 64 | 4.0 | 5.0 | 0.00 | 0.00 | 0.00 | 64 | 1021.8 |
| 20260906080004 | 84 | 103 | 5.0 | 7.0 | 0.00 | 0.00 | 0.00 | 64 | 1021.9 |
| 20260906075504 | 83 | 72 | 5.0 | 7.0 | 0.00 | 0.00 | 0.00 | 64 | 1021.7 |
| 20260906075212 | 83 | 74 | 5.0 | 7.0 | 0.00 | 0.00 | 0.00 | 64 | 1021.6 |
| 20260906074506 | 83 | 43 | 5.0 | 7.0 | 0.00 | 0.00 | 0.00 | 65 | 1021.8 |
| 20260906074004 | 83 | 66 | 6.0 | 9.0 | 0.00 | 0.00 | 0.00 | 64 | 1021.8 |
| 20260906073503 | 83 | 60 | 5.0 | 9.0 | 0.00 | 0.00 | 0.00 | 64 | 1021.6 |
| 20260906073214 | 83 | 29 | 4.0 | 6.0 | 0.00 | 0.00 | 0.00 | 62 | 1021.8 |
| 20260906072503 | 83 | 77 | 3.0 | 5.0 | 0.00 | 0.00 | 0.00 | 61 | 1021.7 |
| 20260906072003 | 83 | 62 | 4.0 | 5.0 | 0.00 | 0.00 | 0.00 | 61 | 1021.6 |
| 20260906071504 | 83 | 59 | 4.0 | 6.0 | 0.00 | 0.00 | 0.00 | 63 | 1021.4 |
| 20260906071003 | 83 | 36 | 4.0 | 6.0 | 0.00 | 0.00 | 0.00 | 63 | 1021.7 |
| 20260906070503 | 83 | 352 | 4.0 | 7.0 | 0.00 | 0.00 | 0.00 | 62 | 1021.7 |
| 20260906070004 | 82 | 39 | 4.0 | 7.0 | 0.00 | 0.00 | 0.00 | 63 | 1021.6 |
| 20260906065715 | 82 | 69 | 5.0 | 7.0 | 0.00 | 0.00 | 0.00 | 63 | 1021.5 |
| 20260906065218 | 82 | 98 | 5.0 | 7.0 | 0.00 | 0.00 | 0.00 | 63 | 1021.5 |
| 20260906064504 | 82 | 103 | 4.0 | 5.0 | 0.00 | 0.00 | 0.00 | 63 | 1021.5 |
| 20260906064003 | 82 | 114 | 4.0 | 6.0 | 0.00 | 0.00 | 0.00 | 63 | 1021.5 |
| 20260906063717 | 82 | 102 | 4.0 | 6.0 | 0.00 | 0.00 | 0.00 | 64 | 1021.4 |
| 20260906063003 | 82 | 342 | 2.0 | 5.0 | 0.00 | 0.00 | 0.00 | 64 | 1021.2 |
| 20260906062504 | 81 | 297 | 3.0 | 4.0 | 0.00 | 0.00 | 0.00 | 63 | 1021.3 |
| 20260906062005 | 81 | 276 | 3.0 | 4.0 | 0.00 | 0.00 | 0.00 | 63 | 1021.4 |
| 20260906061504 | 81 | 266 | 3.0 | 4.0 | 0.00 | 0.00 | 0.00 | 63 | 1021.1 |
| 20260906061003 | 80 | 221 | 4.0 | 5.0 | 0.00 | 0.00 | 0.00 | 64 | 1021.4 |
| 20260906060504 | 80 | 196 | 4.0 | 5.0 | 0.00 | 0.00 | 0.00 | 65 | 1021.2 |
| 20260906060003 | 80 | 203 | 4.0 | 5.0 | 0.00 | 0.00 | 0.00 | 65 | 1021.1 |
| 20260906055503 | 80 | 235 | 3.0 | 5.0 | 0.00 | 0.00 | 0.00 | 65 | 1021.3 |
| 20260906055004 | 80 | 250 | 3.0 | 5.0 | 0.00 | 0.00 | 0.00 | 70 | 1021.1 |
| 20260906054503 | 79 | 212 | 4.0 | 4.0 | 0.00 | 0.00 | 0.00 | 70 | 1021.3 |
| 20260906054004 | 79 | 200 | 4.0 | 4.0 | 0.00 | 0.00 | 0.00 | 71 | 1021.1 |
| 20260906053504 | 79 | 229 | 3.0 | 4.0 | 0.00 | 0.00 | 0.00 | 71 | 1021.2 |
| 20260906053003 | 79 | 278 | 2.0 | 4.0 | 0.00 | 0.00 | 0.00 | 71 | 1021.0 |
| 20260906052504 | 79 | 343 | 1.0 | 3.0 | 0.00 | 0.00 | 0.00 | 71 | 1021.1 |
| 20260906052003 | 78 | 32 | 1.0 | 2.0 | 0.00 | 0.00 | 0.00 | 71 | 1020.9 |
| 20260906051503 | 78 | 335 | 1.0 | 3.0 | 0.00 | 0.00 | 0.00 | 71 | 1021.1 |
| 20260906051004 | 77 | 279 | 2.0 | 3.0 | 0.00 | 0.00 | 0.00 | 71 | 1021.1 |
| 20260906050503 | 77 | 243 | 3.0 | 4.0 | 0.00 | 0.00 | 0.00 | 71 | 1021.0 |
| 20260906050003 | 77 | 230 | 2.0 | 4.0 | 0.00 | 0.00 | 0.00 | 70 | 1021.1 |
| 20260906045503 | 77 | 288 | 2.0 | 4.0 | 0.00 | 0.00 | 0.00 | 70 | 1021.1 |
| 20260906045004 | 77 | 257 | 3.0 | 4.0 | 0.00 | 0.00 | 0.00 | 71 | 1021.3 |
| 20260906044718 | 77 | 251 | 2.0 | 4.0 | 0.00 | 0.00 | 0.00 | 71 | 1020.9 |
| 20260906044216 | 77 | 230 | 2.0 | 4.0 | 0.00 | 0.00 | 0.00 | 71 | 1021.0 |
| 20260906043504 | 77 | 225 | 3.0 | 3.0 | 0.00 | 0.00 | 0.00 | 71 | 1020.9 |
| 20260906043216 | 77 | 225 | 3.0 | 3.0 | 0.00 | 0.00 | 0.00 | 71 | 1020.8 |
| 20260906042503 | 77 | 225 | 2.0 | 3.0 | 0.00 | 0.00 | 0.00 | 71 | 1021.1 |
| 20260906042004 | 77 | 226 | 3.0 | 3.0 | 0.00 | 0.00 | 0.00 | 71 | 1020.8 |
| 20260906041503 | 77 | 250 | 3.0 | 4.0 | 0.00 | 0.00 | 0.00 | 71 | 1020.8 |
| 20260906041003 | 77 | 271 | 3.0 | 4.0 | 0.00 | 0.00 | 0.00 | 70 | 1020.8 |
| 20260906040716 | 77 | 271 | 3.0 | 3.0 | 0.00 | 0.00 | 0.00 | 70 | 1021.0 |
| 20260906040004 | 77 | 251 | 3.0 | 5.0 | 0.00 | 0.00 | 0.00 | 70 | 1020.8 |
| 20260906035503 | 77 | 257 | 3.0 | 4.0 | 0.00 | 0.00 | 0.00 | 69 | 1020.8 |
| 20260906035215 | 77 | 257 | 3.0 | 3.0 | 0.00 | 0.00 | 0.00 | 68 | 1021.0 |
| 20260906034503 | 77 | 284 | 3.0 | 5.0 | 0.00 | 0.00 | 0.00 | 68 | 1020.7 |
| 20260906034003 | 77 | 265 | 4.0 | 5.0 | 0.00 | 0.00 | 0.00 | 67 | 1021.0 |
| 20260906033503 | 77 | 239 | 3.0 | 5.0 | 0.00 | 0.00 | 0.00 | 66 | 1020.6 |
| 20260906033003 | 77 | 243 | 4.0 | 5.0 | 0.00 | 0.00 | 0.00 | 65 | 1020.8 |
| 20260906032503 | 77 | 247 | 4.0 | 5.0 | 0.00 | 0.00 | 0.00 | 65 | 1020.8 |
| 20260906032004 | 77 | 251 | 4.0 | 5.0 | 0.00 | 0.00 | 0.00 | 65 | 1020.8 |
| 20260906031508 | 77 | 251 | 4.0 | 5.0 | 0.00 | 0.00 | 0.00 | 65 | 1020.7 |
| 20260906031214 | 77 | 247 | 4.0 | 5.0 | 0.00 | 0.00 | 0.00 | 65 | 1020.8 |
| 20260906030503 | 77 | 238 | 4.0 | 5.0 | 0.00 | 0.00 | 0.00 | 66 | 1020.7 |
| 20260906030004 | 77 | 229 | 4.0 | 5.0 | 0.00 | 0.00 | 0.00 | 67 | 1020.5 |
| 20260906025504 | 78 | 242 | 4.0 | 4.0 | 0.00 | 0.00 | 0.00 | 67 | 1020.5 |
| 20260906025003 | 78 | 237 | 3.0 | 4.0 | 0.00 | 0.00 | 0.00 | 67 | 1020.8 |
| 20260906024503 | 78 | 225 | 2.0 | 4.0 | 0.00 | 0.00 | 0.00 | 66 | 1020.7 |
| 20260906024004 | 78 | 275 | 2.0 | 3.0 | 0.00 | 0.00 | 0.00 | 66 | 1020.6 |
| 20260906023504 | 78 | 274 | 2.0 | 3.0 | 0.00 | 0.00 | 0.00 | 66 | 1020.6 |
| 20260906022504 | 78 | 278 | 2.0 | 3.0 | 0.00 | 0.00 | 0.00 | 64 | 1021.0 |
| 20260906022003 | 78 | 274 | 2.0 | 4.0 | 0.00 | 0.00 | 0.00 | 65 | 1021.1 |
| 20260906021504 | 78 | 230 | 3.0 | 4.0 | 0.00 | 0.00 | 0.00 | 64 | 1020.8 |
| 20260906021004 | 78 | 242 | 3.0 | 4.0 | 0.00 | 0.00 | 0.00 | 64 | 1020.7 |
| 20260906020717 | 78 | 262 | 3.0 | 6.0 | 0.00 | 0.00 | 0.00 | 65 | 1020.5 |
| 20260906020003 | 78 | 255 | 2.0 | 6.0 | 0.00 | 0.00 | 0.00 | 68 | 1020.8 |
| 20260906015503 | 78 | 315 | 0.0 | 1.0 | 0.00 | 0.00 | 0.00 | 70 | 1020.7 |
| 20260906015216 | 78 | 292 | 0.0 | 1.0 | 0.00 | 0.00 | 0.00 | 70 | 1020.9 |
| 20260906014503 | 78 | 8 | 1.0 | 3.0 | 0.00 | 0.00 | 0.00 | 70 | 1020.9 |
| 20260906014003 | 78 | 357 | 2.0 | 3.0 | 0.00 | 0.00 | 0.00 | 70 | 1020.5 |
| 20260906013503 | 78 | 302 | 2.0 | 3.0 | 0.00 | 0.00 | 0.00 | 70 | 1020.8 |
| 20260906013003 | 78 | 258 | 2.0 | 4.0 | 0.00 | 0.00 | 0.00 | 71 | 1020.8 |
| 20260906012506 | 78 | 216 | 3.0 | 4.0 | 0.00 | 0.00 | 0.00 | 71 | 1020.9 |
| 20260906012219 | 78 | 225 | 4.0 | 4.0 | 0.00 | 0.00 | 0.00 | 71 | 1020.8 |
| 20260906011503 | 79 | 303 | 2.0 | 4.0 | 0.00 | 0.00 | 0.00 | 70 | 1020.8 |
| 20260906011003 | 79 | 281 | 2.0 | 3.0 | 0.00 | 0.00 | 0.00 | 70 | 1020.9 |
| 20260906010504 | 79 | 274 | 3.0 | 3.0 | 0.00 | 0.00 | 0.00 | 70 | 1020.9 |
| 20260906010004 | 79 | 270 | 2.0 | 3.0 | 0.00 | 0.00 | 0.00 | 69 | 1021.0 |
| 20260906005503 | 79 | 294 | 2.0 | 3.0 | 0.00 | 0.00 | 0.00 | 67 | 1021.0 |
| 20260906005217 | 78 | 309 | 2.0 | 3.0 | 0.00 | 0.00 | 0.00 | 67 | 1021.0 |
| 20260906004504 | 78 | 315 | 1.0 | 1.0 | 0.00 | 0.00 | 0.00 | 66 | 1020.9 |
| 20260906004213 | 78 | 313 | 1.0 | 2.0 | 0.00 | 0.00 | 0.00 | 66 | 1021.1 |
| 20260906003503 | 78 | 264 | 2.0 | 4.0 | 0.00 | 0.00 | 0.00 | 66 | 1021.2 |
| 20260906003003 | 78 | 211 | 4.0 | 5.0 | 0.00 | 0.00 | 0.00 | 66 | 1021.1 |
| 20260906002503 | 78 | 209 | 4.0 | 5.0 | 0.00 | 0.00 | 0.00 | 66 | 1021.1 |
| 20260906002004 | 78 | 256 | 2.0 | 4.0 | 0.00 | 0.00 | 0.00 | 66 | 1021.2 |
| 20260906001503 | 78 | 261 | 2.0 | 3.0 | 0.00 | 0.00 | 0.00 | 66 | 1021.0 |
| 20260906001003 | 78 | 264 | 2.0 | 3.0 | 0.00 | 0.00 | 0.00 | 66 | 1021.0 |
| 20260906000503 | 78 | 254 | 3.0 | 4.0 | 0.00 | 0.00 | 0.00 | 68 | 1021.0 |
| 20260906000005 | 78 | 239 | 4.0 | 4.0 | 0.00 | 0.00 | 0.00 | 68 | 1021.1 |
| 20260905235503 | 78 | 239 | 3.0 | 4.0 | 0.00 | 0.00 | 0.00 | 69 | 1021.0 |
| 20260905235003 | 79 | 252 | 3.0 | 5.0 | 0.00 | 0.00 | 0.00 | 69 | 1021.3 |
| 20260905234504 | 79 | 246 | 4.0 | 5.0 | 0.00 | 0.00 | 0.00 | 70 | 1021.4 |
| 20260905234213 | 79 | 238 | 4.0 | 5.0 | 0.00 | 0.00 | 0.00 | 70 | 1021.0 |
| 20260905233503 | 79 | 209 | 4.0 | 5.0 | 0.00 | 0.00 | 0.00 | 70 | 1021.0 |
| 20260905233003 | 79 | 216 | 4.0 | 5.0 | 0.00 | 0.00 | 0.00 | 70 | 1021.2 |
| 20260905232717 | 79 | 239 | 3.0 | 5.0 | 0.00 | 0.00 | 0.00 | 70 | 1021.2 |
| 20260905232004 | 79 | 272 | 3.0 | 5.0 | 0.00 | 0.00 | 0.00 | 71 | 1021.3 |
| 20260905231713 | 79 | 287 | 3.0 | 5.0 | 0.00 | 0.00 | 0.00 | 71 | 1021.3 |
| 20260905231003 | 79 | 275 | 4.0 | 6.0 | 0.00 | 0.00 | 0.00 | 71 | 1020.9 |
| 20260905230504 | 79 | 243 | 4.0 | 6.0 | 0.00 | 0.00 | 0.00 | 70 | 1021.2 |
| 20260905230003 | 79 | 205 | 3.0 | 4.0 | 0.00 | 0.00 | 0.00 | 70 | 1021.2 |
| 20260905225503 | 79 | 217 | 3.0 | 4.0 | 0.00 | 0.00 | 0.00 | 70 | 1021.3 |
| 20260905225003 | 79 | 236 | 3.0 | 4.0 | 0.00 | 0.00 | 0.00 | 70 | 1021.1 |
| 20260905224503 | 79 | 234 | 3.0 | 4.0 | 0.00 | 0.00 | 0.00 | 70 | 1021.4 |
| 20260905224214 | 79 | 251 | 3.0 | 4.0 | 0.00 | 0.00 | 0.00 | 70 | 1021.2 |
| 20260905223504 | 79 | 296 | 2.0 | 4.0 | 0.00 | 0.00 | 0.00 | 70 | 1021.5 |
| 20260905223004 | 79 | 310 | 2.0 | 2.0 | 0.00 | 0.00 | 0.00 | 71 | 1021.7 |
| 20260905222504 | 79 | 279 | 2.0 | 3.0 | 0.00 | 0.00 | 0.00 | 70 | 1021.3 |
| 20260905222003 | 80 | 260 | 1.0 | 3.0 | 0.00 | 0.00 | 0.00 | 70 | 1021.5 |
| 20260905221504 | 80 | 183 | 1.0 | 4.0 | 0.00 | 0.00 | 0.00 | 70 | 1021.6 |
| 20260905221217 | 80 | 181 | 2.0 | 4.0 | 0.00 | 0.00 | 0.00 | 70 | 1021.3 |
| 20260905220715 | 80 | 185 | 4.0 | 4.0 | 0.00 | 0.00 | 0.00 | 70 | 1021.3 |
| 20260905220005 | 80 | 212 | 4.0 | 5.0 | 0.00 | 0.00 | 0.00 | 70 | 1021.3 |
| 20260905215504 | 80 | 223 | 4.0 | 5.0 | 0.00 | 0.00 | 0.00 | 66 | 1021.5 |
| 20260905215003 | 80 | 229 | 4.0 | 5.0 | 0.00 | 0.00 | 0.00 | 66 | 1021.3 |
| 20260905214717 | 80 | 245 | 4.0 | 5.0 | 0.00 | 0.00 | 0.00 | 70 | 1021.2 |
| 20260905214215 | 80 | 244 | 4.0 | 5.0 | 0.00 | 0.00 | 0.00 | 70 | 1021.1 |
| 20260905213504 | 80 | 261 | 3.0 | 4.0 | 0.00 | 0.00 | 0.00 | 67 | 1021.6 |
| 20260905213003 | 80 | 250 | 3.0 | 5.0 | 0.00 | 0.00 | 0.00 | 71 | 1021.3 |
| 20260905212503 | 80 | 240 | 4.0 | 5.0 | 0.00 | 0.00 | 0.00 | 68 | 1021.5 |
| 20260905212004 | 80 | 257 | 3.0 | 5.0 | 0.00 | 0.00 | 0.00 | 69 | 1021.5 |
| 20260905211504 | 80 | 247 | 3.0 | 4.0 | 0.00 | 0.00 | 0.00 | 70 | 1021.4 |
| 20260905211003 | 80 | 229 | 4.0 | 5.0 | 0.00 | 0.00 | 0.00 | 70 | 1021.3 |
| 20260905210716 | 80 | 237 | 3.0 | 5.0 | 0.00 | 0.00 | 0.00 | 70 | 1021.4 |
| 20260905210004 | 80 | 216 | 4.0 | 6.0 | 0.00 | 0.00 | 0.00 | 69 | 1021.4 |
| 20260905205503 | 80 | 216 | 4.0 | 6.0 | 0.00 | 0.00 | 0.00 | 69 | 1021.6 |
| 20260905205003 | 80 | 245 | 4.0 | 5.0 | 0.00 | 0.00 | 0.00 | 68 | 1021.1 |
| 20260905204503 | 81 | 261 | 3.0 | 4.0 | 0.00 | 0.00 | 0.00 | 68 | 1021.6 |
| 20260905204004 | 81 | 228 | 3.0 | 4.0 | 0.00 | 0.00 | 0.00 | 68 | 1021.2 |
| 20260905203506 | 81 | 232 | 3.0 | 4.0 | 0.00 | 0.00 | 0.00 | 69 | 1021.4 |
| 20260905203004 | 81 | 245 | 3.0 | 4.0 | 0.00 | 0.00 | 0.00 | 69 | 1021.6 |
| 20260905202506 | 81 | 272 | 3.0 | 4.0 | 0.00 | 0.00 | 0.00 | 69 | 1021.6 |
| 20260905202003 | 81 | 267 | 3.0 | 3.0 | 0.00 | 0.00 | 0.00 | 69 | 1021.7 |
| 20260905201504 | 81 | 259 | 2.0 | 3.0 | 0.00 | 0.00 | 0.00 | 69 | 1021.6 |
| 20260905201003 | 81 | 279 | 2.0 | 2.0 | 0.00 | 0.00 | 0.00 | 69 | 1021.6 |
| 20260905200503 | 81 | 273 | 2.0 | 2.0 | 0.00 | 0.00 | 0.00 | 68 | 1021.7 |
| 20260905200003 | 81 | 300 | 1.0 | 3.0 | 0.00 | 0.00 | 0.00 | 68 | 1021.7 |
| 20260905195504 | 81 | 293 | 2.0 | 3.0 | 0.00 | 0.00 | 0.00 | 68 | 1021.6 |
| 20260905195004 | 81 | 270 | 2.0 | 3.0 | 0.00 | 0.00 | 0.00 | 68 | 1021.5 |
| 20260905194504 | 81 | 271 | 2.0 | 4.0 | 0.00 | 0.00 | 0.00 | 67 | 1021.8 |
| 20260905194004 | 82 | 268 | 1.0 | 4.0 | 0.00 | 0.00 | 0.00 | 67 | 1021.7 |
| 20260905193503 | 82 | 246 | 1.0 | 4.0 | 0.00 | 0.00 | 0.00 | 67 | 1021.7 |
| 20260905193003 | 82 | 0 | 0.0 | 0.0 | 0.00 | 0.00 | 0.00 | 67 | 1021.6 |
| 20260905192504 | 82 | 360 | 1.0 | 4.0 | 0.00 | 0.00 | 0.00 | 67 | 1021.6 |
| 20260905192004 | 82 | 312 | 2.0 | 4.0 | 0.00 | 0.00 | 0.00 | 67 | 1021.7 |
| 20260905191504 | 82 | 237 | 1.0 | 3.0 | 0.00 | 0.00 | 0.00 | 67 | 1021.7 |
| 20260905191006 | 82 | 282 | 1.0 | 2.0 | 0.00 | 0.00 | 0.00 | 67 | 1021.5 |
| 20260905190717 | 82 | 315 | 1.0 | 2.0 | 0.00 | 0.00 | 0.00 | 67 | 1021.6 |
| 20260905190215 | 82 | 315 | 1.0 | 2.0 | 0.00 | 0.00 | 0.00 | 66 | 1021.3 |
| 20260905185503 | 82 | 301 | 2.0 | 3.0 | 0.00 | 0.00 | 0.00 | 65 | 1021.2 |
| 20260905185003 | 82 | 311 | 3.0 | 3.0 | 0.00 | 0.00 | 0.00 | 65 | 1021.1 |
| 20260905184504 | 82 | 330 | 2.0 | 3.0 | 0.00 | 0.00 | 0.00 | 65 | 1021.2 |
| 20260905184003 | 82 | 328 | 2.0 | 3.0 | 0.00 | 0.00 | 0.00 | 65 | 1021.4 |
| 20260905183503 | 82 | 321 | 3.0 | 3.0 | 0.00 | 0.00 | 0.00 | 65 | 1021.3 |
| 20260905183003 | 82 | 314 | 2.0 | 3.0 | 0.00 | 0.00 | 0.00 | 64 | 1021.3 |
| 20260905182503 | 82 | 315 | 2.0 | 4.0 | 0.00 | 0.00 | 0.00 | 64 | 1021.1 |
| 20260905182003 | 82 | 305 | 3.0 | 5.0 | 0.00 | 0.00 | 0.00 | 64 | 1021.2 |
| 20260905181503 | 82 | 305 | 3.0 | 6.0 | 0.00 | 0.00 | 0.00 | 64 | 1021.1 |
| 20260905181214 | 82 | 310 | 3.0 | 6.0 | 0.00 | 0.00 | 0.00 | 63 | 1021.1 |
| 20260905180504 | 82 | 312 | 4.0 | 5.0 | 0.00 | 0.00 | 0.00 | 63 | 1021.0 |
| 20260905180003 | 82 | 305 | 4.0 | 5.0 | 0.00 | 0.00 | 0.00 | 63 | 1020.9 |
| 20260905175503 | 82 | 316 | 5.0 | 6.0 | 0.00 | 0.00 | 0.00 | 63 | 1021.0 |
| 20260905175004 | 82 | 330 | 6.0 | 7.0 | 0.00 | 0.00 | 0.00 | 63 | 1020.9 |
| 20260905174503 | 82 | 331 | 6.0 | 7.0 | 0.00 | 0.00 | 0.00 | 63 | 1021.1 |
| 20260905174004 | 83 | 324 | 6.0 | 7.0 | 0.00 | 0.00 | 0.00 | 62 | 1020.9 |
| 20260905173503 | 83 | 311 | 4.0 | 5.0 | 0.00 | 0.00 | 0.00 | 62 | 1021.1 |
| 20260905173005 | 83 | 310 | 4.0 | 7.0 | 0.00 | 0.00 | 0.00 | 62 | 1020.8 |
| 20260905172503 | 83 | 319 | 6.0 | 7.0 | 0.00 | 0.00 | 0.00 | 62 | 1020.9 |
| 20260905172003 | 83 | 321 | 7.0 | 7.0 | 0.00 | 0.00 | 0.00 | 61 | 1021.1 |
| 20260905171504 | 83 | 319 | 7.0 | 9.0 | 0.00 | 0.00 | 0.00 | 61 | 1021.0 |
| 20260905171215 | 83 | 313 | 7.0 | 9.0 | 0.00 | 0.00 | 0.00 | 61 | 1020.8 |
| 20260905170504 | 84 | 320 | 6.0 | 8.0 | 0.00 | 0.00 | 0.00 | 60 | 1020.8 |
| 20260905170003 | 84 | 330 | 7.0 | 8.0 | 0.00 | 0.00 | 0.00 | 60 | 1020.8 |
| 20260905165503 | 84 | 332 | 7.0 | 8.0 | 0.00 | 0.00 | 0.00 | 60 | 1020.7 |
| 20260905165004 | 85 | 327 | 8.0 | 10.0 | 0.00 | 0.00 | 0.00 | 58 | 1020.8 |
| 20260905164504 | 85 | 327 | 8.0 | 10.0 | 0.00 | 0.00 | 0.00 | 54 | 1020.8 |
| 20260905164003 | 85 | 334 | 7.0 | 8.0 | 0.00 | 0.00 | 0.00 | 54 | 1021.0 |
| 20260905163503 | 85 | 324 | 7.0 | 8.0 | 0.00 | 0.00 | 0.00 | 55 | 1020.8 |
| 20260905163004 | 85 | 325 | 7.0 | 9.0 | 0.00 | 0.00 | 0.00 | 54 | 1020.7 |
| 20260905162503 | 86 | 344 | 5.0 | 9.0 | 0.00 | 0.00 | 0.00 | 55 | 1020.9 |
| 20260905162003 | 86 | 351 | 4.0 | 7.0 | 0.00 | 0.00 | 0.00 | 53 | 1020.9 |
| 20260905161503 | 86 | 340 | 4.0 | 7.0 | 0.00 | 0.00 | 0.00 | 54 | 1020.6 |
| 20260905161003 | 86 | 4 | 5.0 | 8.0 | 0.00 | 0.00 | 0.00 | 55 | 1020.6 |
| 20260905160506 | 85 | 346 | 8.0 | 10.0 | 0.00 | 0.00 | 0.00 | 55 | 1020.9 |
| 20260905160003 | 85 | 330 | 9.0 | 10.0 | 0.00 | 0.00 | 0.00 | 57 | 1020.9 |
| 20260905155504 | 85 | 331 | 9.0 | 11.0 | 0.00 | 0.00 | 0.00 | 57 | 1020.6 |
| 20260905155004 | 85 | 333 | 9.0 | 11.0 | 0.00 | 0.00 | 0.00 | 55 | 1020.9 |
| 20260905154715 | 85 | 335 | 9.0 | 11.0 | 0.00 | 0.00 | 0.00 | 56 | 1021.1 |
| 20260905154004 | 86 | 336 | 8.0 | 11.0 | 0.00 | 0.00 | 0.00 | 55 | 1020.7 |
| 20260905153716 | 86 | 328 | 7.0 | 10.0 | 0.00 | 0.00 | 0.00 | 55 | 1021.0 |
| 20260905153004 | 86 | 326 | 8.0 | 10.0 | 0.00 | 0.00 | 0.00 | 52 | 1021.1 |
| 20260905152504 | 86 | 346 | 8.0 | 10.0 | 0.00 | 0.00 | 0.00 | 52 | 1020.9 |
| 20260905152004 | 85 | 346 | 7.0 | 10.0 | 0.00 | 0.00 | 0.00 | 53 | 1021.0 |
| 20260905151503 | 86 | 330 | 7.0 | 13.0 | 0.00 | 0.00 | 0.00 | 55 | 1021.1 |
| 20260905151004 | 85 | 314 | 9.0 | 13.0 | 0.00 | 0.00 | 0.00 | 53 | 1021.0 |
| 20260905150714 | 85 | 324 | 10.0 | 13.0 | 0.00 | 0.00 | 0.00 | 53 | 1020.8 |
| 20260905150217 | 86 | 336 | 9.0 | 10.0 | 0.00 | 0.00 | 0.00 | 54 | 1021.0 |
| 20260905145503 | 85 | 323 | 10.0 | 13.0 | 0.00 | 0.00 | 0.00 | 55 | 1021.1 |
| 20260905145213 | 86 | 314 | 11.0 | 15.0 | 0.00 | 0.00 | 0.00 | 55 | 1020.8 |
| 20260905144503 | 86 | 338 | 11.0 | 15.0 | 0.00 | 0.00 | 0.00 | 57 | 1021.0 |
| 20260905144004 | 86 | 333 | 11.0 | 15.0 | 0.00 | 0.00 | 0.00 | 58 | 1020.9 |
| 20260905143503 | 86 | 322 | 10.0 | 15.0 | 0.00 | 0.00 | 0.00 | 57 | 1020.8 |
| 20260905143004 | 86 | 312 | 10.0 | 13.0 | 0.00 | 0.00 | 0.00 | 57 | 1020.9 |
| 20260905142713 | 86 | 316 | 9.0 | 13.0 | 0.00 | 0.00 | 0.00 | 56 | 1020.9 |
| 20260905142003 | 86 | 343 | 9.0 | 13.0 | 0.00 | 0.00 | 0.00 | 56 | 1021.1 |
| 20260905141503 | 85 | 344 | 12.0 | 16.0 | 0.00 | 0.00 | 0.00 | 58 | 1020.9 |
| 20260905141004 | 85 | 329 | 13.0 | 16.0 | 0.00 | 0.00 | 0.00 | 60 | 1021.0 |
| 20260905140715 | 86 | 319 | 13.0 | 16.0 | 0.00 | 0.00 | 0.00 | 60 | 1021.0 |
| 20260905140213 | 85 | 310 | 14.0 | 19.0 | 0.00 | 0.00 | 0.00 | 60 | 1021.0 |
| 20260905135716 | 85 | 322 | 13.0 | 19.0 | 0.00 | 0.00 | 0.00 | 60 | 1021.0 |
| 20260905135003 | 86 | 320 | 13.0 | 16.0 | 0.00 | 0.00 | 0.00 | 58 | 1021.0 |
| 20260905134504 | 85 | 319 | 13.0 | 16.0 | 0.00 | 0.00 | 0.00 | 57 | 1021.2 |
| 20260905134006 | 86 | 323 | 12.0 | 16.0 | 0.00 | 0.00 | 0.00 | 56 | 1020.8 |
| 20260905133503 | 86 | 342 | 12.0 | 16.0 | 0.00 | 0.00 | 0.00 | 58 | 1020.9 |
| 20260905133003 | 86 | 358 | 12.0 | 16.0 | 0.00 | 0.00 | 0.00 | 55 | 1021.0 |
| 20260905132714 | 86 | 343 | 12.0 | 16.0 | 0.00 | 0.00 | 0.00 | 56 | 1021.2 |
| 20260905132003 | 87 | 316 | 12.0 | 16.0 | 0.00 | 0.00 | 0.00 | 57 | 1021.1 |
| 20260905131504 | 86 | 322 | 13.0 | 16.0 | 0.00 | 0.00 | 0.00 | 58 | 1021.1 |
| 20260905131003 | 86 | 328 | 12.0 | 16.0 | 0.00 | 0.00 | 0.00 | 55 | 1020.8 |
| 20260905130503 | 86 | 325 | 12.0 | 15.0 | 0.00 | 0.00 | 0.00 | 59 | 1021.0 |
| 20260905130004 | 86 | 324 | 13.0 | 16.0 | 0.00 | 0.00 | 0.00 | 56 | 1021.2 |
| 20260905125503 | 86 | 313 | 13.0 | 16.0 | 0.00 | 0.00 | 0.00 | 55 | 1021.1 |
| 20260905125003 | 87 | 317 | 10.0 | 15.0 | 0.00 | 0.00 | 0.00 | 52 | 1021.1 |
| 20260905124503 | 88 | 345 | 9.0 | 12.0 | 0.00 | 0.00 | 0.00 | 48 | 1021.0 |
| 20260905124215 | 88 | 354 | 9.0 | 12.0 | 0.00 | 0.00 | 0.00 | 47 | 1021.1 |
| 20260905123713 | 89 | 340 | 8.0 | 12.0 | 0.00 | 0.00 | 0.00 | 41 | 1021.0 |
| 20260905123003 | 89 | 340 | 6.0 | 11.0 | 0.00 | 0.00 | 0.00 | 42 | 1021.0 |
| 20260905122714 | 89 | 2 | 5.0 | 7.0 | 0.00 | 0.00 | 0.00 | 44 | 1021.0 |
| 20260905122004 | 89 | 20 | 6.0 | 8.0 | 0.00 | 0.00 | 0.00 | 43 | 1021.2 |
| 20260905121505 | 89 | 340 | 8.0 | 10.0 | 0.00 | 0.00 | 0.00 | 48 | 1021.2 |
| 20260905121003 | 89 | 321 | 10.0 | 10.0 | 0.00 | 0.00 | 0.00 | 48 | 1021.0 |
| 20260905120504 | 88 | 330 | 9.0 | 10.0 | 0.00 | 0.00 | 0.00 | 48 | 1021.0 |
| 20260905120004 | 88 | 35 | 7.0 | 10.0 | 0.00 | 0.00 | 0.00 | 48 | 1020.9 |
| 20260905115503 | 88 | 50 | 8.0 | 10.0 | 0.00 | 0.00 | 0.00 | 50 | 1021.2 |
| 20260905115004 | 87 | 66 | 10.0 | 12.0 | 0.00 | 0.00 | 0.00 | 52 | 1021.1 |
| 20260905114503 | 87 | 66 | 9.0 | 12.0 | 0.00 | 0.00 | 0.00 | 52 | 1021.1 |
| 20260905114007 | 88 | 76 | 9.0 | 10.0 | 0.00 | 0.00 | 0.00 | 51 | 1021.0 |
| 20260905113504 | 87 | 87 | 9.0 | 10.0 | 0.00 | 0.00 | 0.00 | 52 | 1020.9 |
| 20260905113005 | 87 | 64 | 8.0 | 11.0 | 0.00 | 0.00 | 0.00 | 54 | 1021.0 |
| 20260905112503 | 87 | 48 | 8.0 | 11.0 | 0.00 | 0.00 | 0.00 | 54 | 1021.1 |
| 20260905112004 | 86 | 46 | 8.0 | 11.0 | 0.00 | 0.00 | 0.00 | 55 | 1021.1 |